Location: Ajisawe
(8.4333°N, 4.3833°E)
Time: 22:18:19
(UTC+00:00)

Vanguard 2 Rocket - Pass Details

Date: 22 April 2021
Orbit: 554 x 3326 km, 32.9° (Epoch: 16 May)

Event Time Altitude Azimuth Distance (km) Brightness Sun altitude
Rises 19:29:55 0° 304° (NW) 7,011 12.7 -24.2°
Reaches altitude 10° 19:35:05 10° 305° (NW) 5,714 11.9 -25.5°
Maximum altitude 19:51:18 86° 33° (NNE) 1,947 8.3 -29.3°
Enters shadow 19:54:20 55° 117° (ESE) 2,014 8.1 -30.0°
Drops below altitude 10° 20:00:12 10° 122° (ESE) 3,345 - -31.3°
Sets 20:02:28 0° 123° (ESE) 4,048 - -31.8°
